Regional Weather Roundup
Issued by NWS

Home | Current Version | Previous Version | Text Only | Print | Product List | Glossary On
Versions: 1 2 3 4 5 6 7 8 9 10 11 12 13 14 15 16 17 18 19 20 21 22 23 24 25 26 27 28 29 30 31 32 33 34 35 36 37 38 39 40 41 42 43 44 45 46 47 48 49 50
000
ASUS44 KOUN 270910
RWROK

WEATHER ROUNDUP FOR OKLAHOMA
NATIONAL WEATHER SERVICE NORMAN OK
400 AM CDT TUE JUN 27 2017

NOTE: "FAIR" INDICATES FEW OR NO CLOUDS BELOW 12,000 FEET WITH NO
      SIGNIFICANT WEATHER AND/OR OBSTRUCTIONS TO VISIBILITY.

OKZ001>007-009>012-014-015-017-271000-
NORTHWEST OKLAHOMA AND THE PANHANDLE

CITY           SKY/WX    TMP DP  RH WIND       PRES   REMARKS
GAGE           PTCLDY    72  66  81 S15       30.04F
GUYMON         CLOUDY    71  63  75 S12       30.01F
ENID/WOODRING  CLOUDY    70  63  78 SW6       30.02F
$$

OKZ016-021>023-033>039-044-045-271000-
SOUTHWEST OKLAHOMA

CITY           SKY/WX    TMP DP  RH WIND       PRES   REMARKS
LAWTON/REGL    CLEAR     69  68  96 CALM      30.04F
LAWTON/FT SILL CLEAR     69  69 100 S5        30.03F
FREDERICK      CLEAR     71  69  93 E7        30.01F FOG
CLINTON        CLEAR     71  67  87 S12       30.06F
HOBART         CLEAR     71  68  90 S8        30.05F
ALTUS AFB      PTCLDY    71  68  89 SE5       30.03F
$$

OKZ018>020-024>031-271000-
CENTRAL OKLAHOMA

CITY           SKY/WX    TMP DP  RH WIND       PRES   REMARKS
OKLAHOMA CITY  CLOUDY    66  62  87 S6        30.05F
OKC/WILEY POST PTCLDY    71  64  78 S7        30.06S
STILLWATER     CLOUDY    69  60  73 SE5       30.05R
GUTHRIE        CLOUDY    70  62  76 SE6       30.05S
$$

OKZ008-013-054>072-271000-
NORTHEAST OKLAHOMA

CITY           SKY/WX    TMP DP  RH WIND       PRES   REMARKS
TULSA          CLOUDY    71  63  75 E3        30.04F
TULSA/JONES    MOCLDY    66  61  84 CALM      30.05
PONCA CITY     CLOUDY    68  62  81 SE5       30.05S
BARTLESVILLE   CLEAR     63  61  93 N5        30.09R
MUSKOGEE       CLEAR     66  63  90 SE3       30.07F
$$

OKZ032-040>043-046>053-073>077-271000-
SOUTH CENTRAL/SOUTHEAST OKLAHOMA

CITY           SKY/WX    TMP DP  RH WIND       PRES   REMARKS
ARDMORE/DWNTWN CLEAR     68  63  83 E6        30.05R
MCALESTER      MOCLDY    67  60  78 CALM      30.06F
$$




USA.gov is the U.S. government's official web portal to all federal, state and local government web resources and services.